597  
NZUS01 KOTX 140625  
RWROTX  
 
EASTERN WASHINGTON/NORTHERN IDAHO ROUNDUP  
NATIONAL WEATHER SERVICE, SPOKANE WA  
1100 PM PDT MON AUG 13 2018  
 
NOTE: "FAIR" INDICATED FEW OR NO CLOUDS BELOW 12,000 FEET WITH NO  
SIGNIFICANT WEATHER AND/OR S TO VISIBILITY
.  
   
..NORTHEAST WASHINGTON AND NORTHERN IDAHO PANHANDLE
 
 
 
CITY SKY/WX TMP DP RH WIND PRES REMARKS
 
SPOKANE INTL MOCLDY 65 42 43 SW5 30.01F  
SPOKANE DOWNTO CLEAR 61 45 55 CALM 30.00S HAZE  
COEUR D ALENE CLEAR 61 43 51 NE5 30.02S  
DEER PARK CLEAR 51 39 63 N3 30.01S HAZE  
SANDPOINT CLEAR 52 45 76 CALM 30.02R  
BONNERS FERRY FAIR 57 46 67 CALM 30.02R HAZE  
   
..SOUTHEAST WASHINGTON AND SOUTHERN IDAHO PANHANDLE
 
 
 
CITY SKY/WX TMP DP RH WIND PRES REMARKS
 
WALLA WALLA CLEAR N/A N/A N/A MISG 29.96R  
PULLMAN/MOSCOW CLEAR 57 38 48 CALM 30.04S HAZE  
LEWISTON MOCLDY 70 38 31 S6 29.97R HAZE  
LOWELL N/A 62 36 37 CALM 30.02R  
GRANGEVILLE N/A 57 39 51 CALM 30.05S  
   
..COLUMBIA BASIN
 
 
 
CITY SKY/WX TMP DP RH WIND PRES REMARKS
 
EPHRATA PTCLDY 75 39 27 NW10 29.97S HAZE  
MOSES LAKE MOCLDY 65 43 44 NW7 29.97S HAZE  
PASCO CLOUDY 60 55 83 NW6 29.93S HAZE  
RICHLAND CLEAR 66 50 57 CALM 29.94R HAZE  
HERMISTON CLEAR 64 48 56 S6 29.92F HAZE  
PENDLETON CLOUDY 69 42 37 S5 29.97S HAZE  
   
..EAST SLOPES CASCADES
 
 
 
CITY SKY/WX TMP DP RH WIND PRES REMARKS
 
THE DALLES CLOUDY 71 45 39 CALM 29.92S HAZE  
YAKIMA CLEAR 62 50 64 NW5 29.98R HAZE  
ELLENSBURG CLOUDY 62 47 57 NW6 30.01R HAZE  
STAMPEDE PASS CLOUDY 65 51 60 CALM 30.12F  
WENATCHEE CLOUDY 73 44 35 NW7 29.98S HAZE  
WINTHROP CLOUDY 59 50 72 CALM 30.04R HAZE  
OMAK CLEAR 66 49 54 NW9 30.01R HAZE  
SUNNYSIDE CLEAR 56 53 88 CALM 29.96R FOG  
   
..SOUTHERN BRITISH COLUMBIA
 
 
 
CITY SKY/WX TMP DP RH WIND PRES REMARKS
 
PENTICTON CLEAR 61 48 63 N6 30.04R SMOKE  
CRANBROOK CLEAR 63 41 45 W6 30.04S  
OSOYOOS N/A 68 52 56 N2 N/A  
CRESTON N/A 63 45 51 NE5 N/A  
   
..WESTERN MONTANA
 
 
 
CITY SKY/WX TMP DP RH WIND PRES REMARKS
 
KALISPELL CLOUDY 51 44 77 CALM 30.03R SMOKE  
LIBBY N/A 57 45 62 S3 30.03R  
MISSOULA CLEAR 61 37 41 CALM 30.03R  
   
..NEIGHBORING CITIES
 
 
 
CITY SKY/WX TMP DP RH WIND PRES REMARKS
 
SEATTLE MOCLDY 69 57 65 NE10 29.98S  
PORTLAND CLOUDY 74 57 55 W6 29.88S  
BOISE CLEAR 73 41 31 SW3 29.92S  
GREAT FALLS CLEAR 63 44 50 E10 30.11F  
CALGARY CLEAR 55 43 62 S9 30.05F  
 
CLICK HERE TO GO TO PREVIOUS BULLETINS.

The Nexlab WA Page
The Nexlab ID Page Main Text Page